When you browse on this site, cookies collect data to enhance your experience and personalize the content and advertising you see.
Visit our Privacy Policy to learn more. By continuing to use the site, you agree to this use of cookies and data.
  • In France
  • List of Countries
  • For 7 days
  • Water Temperature
  • Weather Map
  • Weather Widgets
  • user-avatar
    Login

    Hourly Weather Kiustendil

    Today, 22 September, Sunday

    Time Temperature Precipitation Wind Pressure Humidity
    00:00 +4°C° 0 mm 1 mps 628 mmHg 43%
    01:00 +3°C° 0 mm 1 mps 628 mmHg 45%
    02:00 +3°C° 0 mm 1 mps 627 mmHg 47%
    03:00 +3°C° 0 mm 1 mps 627 mmHg 50%
    04:00 +3°C° 0 mm 1 mps 627 mmHg 52%
    05:00 +4°C° 0 mm 1 mps 628 mmHg 51%
    06:00 +6°C° 0 mm 1 mps 628 mmHg 50%
    07:00 +7°C° 0 mm 1 mps 629 mmHg 49%
    08:00 +9°C° 0 mm 1 mps 629 mmHg 46%
    09:00 +12°C° 0 mm 1 mps 630 mmHg 43%
    10:00 +14°C° 0 mm 2 mps 631 mmHg 39%
    11:00 +15°C° 0 mm 2 mps 631 mmHg 37%
    12:00 +16°C° 0 mm 2 mps 631 mmHg 35%
    13:00 +17°C° 0 mm 2 mps 630 mmHg 32%
    14:00 +17°C° 0 mm 2 mps 630 mmHg 33%
    15:00 +17°C° 0 mm 2 mps 629 mmHg 35%
    16:00 +16°C° 0 mm 2 mps 629 mmHg 36%
    17:00 +14°C° 0 mm 2 mps 628 mmHg 44%
    18:00 +11°C° 0 mm 1 mps 627 mmHg 51%
    19:00 +9°C° 0 mm 1 mps 626 mmHg 59%
    20:00 +8°C° 0 mm 1 mps 626 mmHg 60%
    21:00 +8°C° 0 mm 1 mps 626 mmHg 61%
    22:00 +8°C° 0 mm 1 mps 626 mmHg 62%
    23:00 +7°C° 0 mm 1 mps 626 mmHg 63%

    Tomorrow, 23 September, Monday

    Time Temperature Precipitation Wind Pressure Humidity
    00:00 +7°C° 0 mm 1 mps 625 mmHg 65%
    01:00 +6°C° 0 mm 0 mps 625 mmHg 67%
    02:00 +5°C° 0 mm 0 mps 625 mmHg 68%
    03:00 +5°C° 0 mm 0 mps 625 mmHg 69%
    04:00 +5°C° 0 mm 0 mps 625 mmHg 71%
    05:00 +6°C° 0 mm 0 mps 625 mmHg 66%
    06:00 +9°C° 0 mm 1 mps 625 mmHg 62%
    07:00 +10°C° 0 mm 1 mps 626 mmHg 58%
    08:00 +13°C° 0 mm 1 mps 627 mmHg 52%
    09:00 +15°C° 0 mm 1 mps 627 mmHg 46%
    10:00 +17°C° 0 mm 2 mps 628 mmHg 40%
    11:00 +17°C° 0 mm 2 mps 628 mmHg 39%
    12:00 +18°C° 0 mm 2 mps 627 mmHg 38%
    13:00 +18°C° 0 mm 2 mps 627 mmHg 36%
    14:00 +17°C° 0 mm 2 mps 627 mmHg 40%
    15:00 +16°C° 0 mm 2 mps 626 mmHg 44%
    16:00 +15°C° 0 mm 2 mps 626 mmHg 48%
    17:00 +14°C° 0.1 mm 1 mps 625 mmHg 55%
    18:00 +13°C° 0.1 mm 1 mps 625 mmHg 62%
    19:00 +11°C° 0.1 mm 1 mps 625 mmHg 69%
    20:00 +11°C° 0 mm 1 mps 624 mmHg 72%
    21:00 +10°C° 0 mm 1 mps 624 mmHg 74%
    22:00 +9°C° 0 mm 0 mps 624 mmHg 76%
    23:00 +9°C° 0 mm 1 mps 623 mmHg 77%

    Day after tomorrow, 24 September, Tuesday

    Time Temperature Precipitation Wind Pressure Humidity
    00:00 +9°C° 0 mm 1 mps 623 mmHg 78%
    01:00 +8°C° 0 mm 1 mps 623 mmHg 79%
    02:00 +8°C° 0 mm 1 mps 622 mmHg 79%
    03:00 +8°C° 0 mm 1 mps 622 mmHg 80%
    04:00 +8°C° 0 mm 1 mps 622 mmHg 80%
    05:00 +9°C° 0.5 mm 1 mps 622 mmHg 81%
    06:00 +9°C° 0.5 mm 1 mps 622 mmHg 82%
    07:00 +10°C° 0.5 mm 1 mps 622 mmHg 83%
    08:00 +10°C° 1.2 mm 1 mps 622 mmHg 82%
    09:00 +11°C° 1.2 mm 1 mps 623 mmHg 81%
    10:00 +11°C° 1.2 mm 1 mps 623 mmHg 80%
    11:00 +12°C° 0.9 mm 1 mps 623 mmHg 79%
    12:00 +12°C° 0.9 mm 1 mps 623 mmHg 79%
    13:00 +12°C° 0.9 mm 2 mps 623 mmHg 78%
    14:00 +12°C° 0.7 mm 2 mps 622 mmHg 79%
    15:00 +12°C° 0.7 mm 1 mps 622 mmHg 80%
    16:00 +12°C° 0.7 mm 1 mps 622 mmHg 82%
    17:00 +11°C° 0.2 mm 1 mps 622 mmHg 85%
    18:00 +10°C° 0.2 mm 1 mps 622 mmHg 89%
    19:00 +9°C° 0.2 mm 1 mps 621 mmHg 93%
    20:00 +8°C° 0.1 mm 1 mps 622 mmHg 93%
    21:00 +8°C° 0.1 mm 1 mps 622 mmHg 93%
    22:00 +8°C° 0.1 mm 1 mps 622 mmHg 93%
    23:00 +8°C° 0 mm 1 mps 622 mmHg 94%

    25 September, Wednesday

    Time Temperature Precipitation Wind Pressure Humidity
    00:00 +8°C° 0 mm 1 mps 621 mmHg 94%
    01:00 +7°C° 0 mm 0 mps 621 mmHg 94%
    02:00 +6°C° 0 mm 0 mps 621 mmHg 94%
    03:00 +6°C° 0 mm 0 mps 621 mmHg 94%
    04:00 +6°C° 0 mm 0 mps 621 mmHg 94%
    05:00 +7°C° 0 mm 0 mps 621 mmHg 92%
    06:00 +7°C° 0 mm 0 mps 622 mmHg 90%
    07:00 +8°C° 0 mm 0 mps 622 mmHg 88%
    08:00 +9°C° 0 mm 0 mps 622 mmHg 83%
    09:00 +12°C° 0 mm 1 mps 623 mmHg 77%
    10:00 +13°C° 0 mm 1 mps 624 mmHg 71%
    11:00 +14°C° 0.2 mm 1 mps 624 mmHg 67%
    12:00 +15°C° 0.2 mm 2 mps 624 mmHg 62%
    13:00 +16°C° 0.2 mm 2 mps 624 mmHg 57%
    14:00 +16°C° 0.1 mm 2 mps 623 mmHg 57%
    15:00 +15°C° 0.1 mm 2 mps 623 mmHg 58%
    16:00 +15°C° 0.1 mm 2 mps 623 mmHg 58%
    17:00 +13°C° 0 mm 1 mps 623 mmHg 64%
    18:00 +12°C° 0 mm 1 mps 623 mmHg 69%
    19:00 +11°C° 0 mm 1 mps 622 mmHg 75%
    20:00 +10°C° 0 mm 1 mps 622 mmHg 78%
    21:00 +9°C° 0 mm 1 mps 622 mmHg 81%
    22:00 +9°C° 0 mm 1 mps 622 mmHg 84%
    23:00 +8°C° 0 mm 1 mps 622 mmHg 86%

    26 September, Thursday

    Time Temperature Precipitation Wind Pressure Humidity
    00:00 +8°C° 0 mm 1 mps 622 mmHg 87%
    01:00 +8°C° 0 mm 1 mps 622 mmHg 89%
    02:00 +8°C° 0 mm 1 mps 622 mmHg 91%
    03:00 +8°C° 0 mm 1 mps 622 mmHg 92%
    04:00 +8°C° 0 mm 1 mps 622 mmHg 93%
    05:00 +9°C° 0 mm 1 mps 622 mmHg 91%
    06:00 +9°C° 0 mm 1 mps 623 mmHg 88%
    07:00 +9°C° 0 mm 0 mps 623 mmHg 86%
    08:00 +11°C° 0.2 mm 1 mps 624 mmHg 80%
    09:00 +12°C° 0.2 mm 1 mps 624 mmHg 75%
    10:00 +13°C° 0.2 mm 2 mps 625 mmHg 69%
    11:00 +13°C° 0.1 mm 2 mps 625 mmHg 70%
    12:00 +12°C° 0.1 mm 2 mps 624 mmHg 70%
    13:00 +12°C° 0.1 mm 2 mps 624 mmHg 71%
    14:00 +12°C° 0.1 mm 2 mps 624 mmHg 71%
    15:00 +10°C° 0.1 mm 2 mps 624 mmHg 71%
    16:00 +11°C° 0.1 mm 1 mps 624 mmHg 71%
    17:00 +10°C° 0 mm 1 mps 624 mmHg 74%
    18:00 +9°C° 0 mm 1 mps 624 mmHg 77%
    19:00 +8°C° 0 mm 1 mps 624 mmHg 80%
    20:00 +8°C° 0 mm 1 mps 624 mmHg 82%
    21:00 +7°C° 0 mm 1 mps 624 mmHg 84%
    22:00 +6°C° 0 mm 1 mps 624 mmHg 85%
    23:00 +6°C° 0 mm 1 mps 624 mmHg 86%

    27 September, Friday

    Time Temperature Precipitation Wind Pressure Humidity
    00:00 +6°C° 0 mm 1 mps 624 mmHg 87%
    01:00 +5°C° 0 mm 1 mps 624 mmHg 88%
    02:00 +5°C° 0 mm 1 mps 624 mmHg 87%
    03:00 +5°C° 0 mm 1 mps 624 mmHg 86%
    04:00 +4°C° 0 mm 1 mps 624 mmHg 86%
    05:00 +5°C° 0 mm 1 mps 624 mmHg 81%
    06:00 +6°C° 0 mm 1 mps 625 mmHg 76%
    07:00 +7°C° 0 mm 1 mps 625 mmHg 71%
    08:00 +10°C° 0 mm 1 mps 626 mmHg 61%
    09:00 +12°C° 0 mm 1 mps 627 mmHg 52%
    10:00 +14°C° 0 mm 1 mps 628 mmHg 42%
    11:00 +15°C° 0 mm 1 mps 628 mmHg 39%
    12:00 +16°C° 0 mm 1 mps 628 mmHg 35%
    13:00 +17°C° 0 mm 2 mps 628 mmHg 31%
    14:00 +18°C° 0 mm 1 mps 628 mmHg 33%
    15:00 +18°C° 0 mm 1 mps 628 mmHg 34%
    16:00 +16°C° 0 mm 1 mps 628 mmHg 35%
    17:00 +14°C° 0 mm 1 mps 627 mmHg 41%
    18:00 +12°C° 0 mm 1 mps 626 mmHg 47%
    19:00 +9°C° 0 mm 1 mps 626 mmHg 52%
    20:00 +9°C° 0 mm 1 mps 626 mmHg 53%
    21:00 +9°C° 0 mm 1 mps 626 mmHg 54%
    22:00 +8°C° 0 mm 1 mps 626 mmHg 55%
    23:00 +8°C° 0 mm 1 mps 626 mmHg 57%
    Show more